| time (UTC) | temp F | wind direction | speed knots | gust knots | rain 1hr in | rain 24hr in | rain mn in | humidity % | barometer mb |
| 20260506161504 | 77 | 0 | 0.0 | 0.0 | 0.00 | 0.00 | 0.00 | 36 | 1005.1 |
| 20260506161004 | 77 | 0 | 0.0 | 0.0 | 0.00 | 0.00 | 0.00 | 36 | 1004.9 |
| 20260506160504 | 77 | 0 | 0.0 | 0.0 | 0.00 | 0.00 | 0.00 | 36 | 1005.0 |
| 20260506160004 | 77 | 0 | 0.0 | 0.0 | 0.00 | 0.00 | 0.00 | 36 | 1005.1 |
| 20260506155504 | 77 | 0 | 0.0 | 0.0 | 0.00 | 0.00 | 0.00 | 36 | 1005.1 |
| 20260506155004 | 77 | 0 | 0.0 | 0.0 | 0.00 | 0.00 | 0.00 | 36 | 1005.1 |
| 20260506154503 | 77 | 0 | 0.0 | 0.0 | 0.00 | 0.00 | 0.00 | 35 | 1005.0 |
| 20260506154005 | 78 | 0 | 0.0 | 0.0 | 0.00 | 0.00 | 0.00 | 34 | 1005.1 |
| 20260506153504 | 78 | 0 | 0.0 | 0.0 | 0.00 | 0.00 | 0.00 | 35 | 1005.1 |
| 20260506153004 | 79 | 0 | 0.0 | 0.0 | 0.00 | 0.00 | 0.00 | 34 | 1005.1 |
| 20260506152717 | 79 | 0 | 0.0 | 0.0 | 0.00 | 0.00 | 0.00 | 34 | 1005.0 |
| 20260506152004 | 80 | 0 | 0.0 | 0.0 | 0.00 | 0.00 | 0.00 | 34 | 1005.0 |
| 20260506151503 | 80 | 0 | 0.0 | 0.0 | 0.00 | 0.00 | 0.00 | 34 | 1005.1 |
| 20260506151003 | 80 | 0 | 0.0 | 0.0 | 0.00 | 0.00 | 0.00 | 36 | 1004.7 |
| 20260506150713 | 79 | 0 | 0.0 | 0.0 | 0.00 | 0.00 | 0.00 | 35 | 1005.1 |
| 20260506150005 | 78 | 0 | 0.0 | 0.0 | 0.00 | 0.00 | 0.00 | 37 | 1004.9 |
| 20260506145504 | 77 | 0 | 0.0 | 0.0 | 0.00 | 0.00 | 0.00 | 36 | 1005.0 |
| 20260506145004 | 78 | 189 | 0.9 | 5.2 | 0.00 | 0.00 | 0.00 | 35 | 1005.0 |
| 20260506144504 | 79 | 194 | 0.9 | 5.2 | 0.00 | 0.00 | 0.00 | 33 | 1005.0 |
| 20260506144004 | 80 | 225 | 0.0 | 3.5 | 0.00 | 0.00 | 0.00 | 33 | 1005.1 |
| 20260506143716 | 81 | 0 | 0.0 | 0.0 | 0.00 | 0.00 | 0.00 | 34 | 1005.1 |
| 20260506143004 | 81 | 0 | 0.0 | 0.0 | 0.00 | 0.00 | 0.00 | 33 | 1005.1 |
| 20260506142717 | 80 | 0 | 0.0 | 0.0 | 0.00 | 0.00 | 0.00 | 33 | 1004.9 |
| 20260506142004 | 80 | 225 | 0.0 | 5.2 | 0.00 | 0.00 | 0.00 | 34 | 1004.9 |
| 20260506141713 | 80 | 225 | 0.0 | 5.2 | 0.00 | 0.00 | 0.00 | 34 | 1005.0 |
| 20260506141004 | 79 | 0 | 0.0 | 0.0 | 0.00 | 0.00 | 0.00 | 35 | 1004.8 |
| 20260506140503 | 79 | 0 | 0.0 | 0.0 | 0.00 | 0.00 | 0.00 | 34 | 1004.8 |
| 20260506140004 | 79 | 0 | 0.0 | 0.0 | 0.00 | 0.00 | 0.00 | 34 | 1004.9 |
| 20260506135503 | 78 | 247 | 0.0 | 0.9 | 0.00 | 0.00 | 0.00 | 34 | 1004.7 |
| 20260506135003 | 79 | 247 | 0.0 | 0.9 | 0.00 | 0.00 | 0.00 | 33 | 1004.7 |
| 20260506134504 | 79 | 0 | 0.0 | 0.0 | 0.00 | 0.00 | 0.00 | 33 | 1004.6 |
| 20260506134004 | 79 | 225 | 0.0 | 1.7 | 0.00 | 0.00 | 0.00 | 33 | 1004.7 |
| 20260506133504 | 78 | 232 | 0.9 | 3.5 | 0.00 | 0.00 | 0.00 | 35 | 1004.5 |
| 20260506133004 | 77 | 235 | 0.9 | 3.5 | 0.00 | 0.00 | 0.00 | 35 | 1004.8 |
| 20260506132503 | 77 | 0 | 0.0 | 0.0 | 0.00 | 0.00 | 0.00 | 34 | 1004.7 |
| 20260506132003 | 77 | 247 | 0.9 | 5.2 | 0.00 | 0.00 | 0.00 | 33 | 1004.6 |
| 20260506131503 | 78 | 247 | 0.9 | 5.2 | 0.00 | 0.00 | 0.00 | 33 | 1004.7 |
| 20260506131004 | 78 | 0 | 0.0 | 0.0 | 0.00 | 0.00 | 0.00 | 33 | 1004.5 |
| 20260506130504 | 78 | 255 | 0.9 | 5.2 | 0.00 | 0.00 | 0.00 | 32 | 1004.5 |
| 20260506130005 | 79 | 255 | 0.9 | 5.2 | 0.00 | 0.00 | 0.00 | 32 | 1004.6 |
| 20260506125503 | 80 | 225 | 0.0 | 0.9 | 0.00 | 0.00 | 0.00 | 31 | 1004.7 |
| 20260506125003 | 80 | 196 | 0.0 | 0.9 | 0.00 | 0.00 | 0.00 | 31 | 1004.3 |
| 20260506124503 | 80 | 180 | 0.0 | 0.9 | 0.00 | 0.00 | 0.00 | 31 | 1004.5 |
| 20260506124004 | 79 | 0 | 0.0 | 0.0 | 0.00 | 0.00 | 0.00 | 32 | 1004.4 |
| 20260506123504 | 78 | 0 | 0.0 | 0.0 | 0.00 | 0.00 | 0.00 | 32 | 1004.6 |
| 20260506123004 | 78 | 0 | 0.0 | 0.0 | 0.00 | 0.00 | 0.00 | 31 | 1004.7 |
| 20260506122503 | 78 | 197 | 0.0 | 1.7 | 0.00 | 0.00 | 0.00 | 31 | 1004.7 |
| 20260506122003 | 78 | 209 | 0.9 | 4.3 | 0.00 | 0.00 | 0.00 | 31 | 1004.7 |
| 20260506121715 | 79 | 242 | 1.7 | 8.7 | 0.00 | 0.00 | 0.00 | 31 | 1004.5 |
| 20260506121003 | 79 | 270 | 0.9 | 8.7 | 0.00 | 0.00 | 0.00 | 30 | 1004.5 |
| 20260506120504 | 79 | 225 | 0.0 | 0.9 | 0.00 | 0.00 | 0.00 | 30 | 1004.4 |
| 20260506120213 | 79 | 242 | 0.9 | 5.2 | 0.00 | 0.00 | 0.00 | 30 | 1004.5 |
| 20260506115504 | 80 | 235 | 1.7 | 5.2 | 0.00 | 0.00 | 0.00 | 29 | 1004.5 |
| 20260506115214 | 80 | 225 | 0.9 | 5.2 | 0.00 | 0.00 | 0.00 | 29 | 1004.2 |
| 20260506114717 | 80 | 0 | 0.0 | 0.0 | 0.00 | 0.00 | 0.00 | 30 | 1004.4 |
| 20260506114004 | 80 | 0 | 0.0 | 0.0 | 0.00 | 0.00 | 0.00 | 29 | 1004.1 |
| 20260506113713 | 81 | 0 | 0.0 | 0.0 | 0.00 | 0.00 | 0.00 | 29 | 1004.4 |
| 20260506113003 | 82 | 233 | 0.0 | 1.7 | 0.00 | 0.00 | 0.00 | 23 | 1004.3 |
| 20260506112503 | 83 | 212 | 0.9 | 3.5 | 0.00 | 0.00 | 0.00 | 23 | 1004.3 |
| 20260506112217 | 83 | 212 | 0.9 | 3.5 | 0.00 | 0.00 | 0.00 | 23 | 1004.3 |
| 20260506111715 | 83 | 215 | 0.0 | 0.9 | 0.00 | 0.00 | 0.00 | 23 | 1004.1 |
| 20260506111004 | 83 | 215 | 0.0 | 0.9 | 0.00 | 0.00 | 0.00 | 23 | 1004.1 |
| 20260506110504 | 83 | 0 | 0.0 | 0.0 | 0.00 | 0.00 | 0.00 | 25 | 1004.3 |
| 20260506110214 | 82 | 225 | 0.9 | 5.2 | 0.00 | 0.00 | 0.00 | 25 | 1004.4 |
| 20260506105504 | 81 | 219 | 0.9 | 5.2 | 0.00 | 0.00 | 0.00 | 30 | 1004.3 |
| 20260506105215 | 81 | 212 | 0.9 | 5.2 | 0.00 | 0.00 | 0.00 | 30 | 1004.4 |
| 20260506104504 | 80 | 0 | 0.0 | 0.0 | 0.00 | 0.00 | 0.00 | 31 | 1004.5 |
| 20260506104003 | 80 | 0 | 0.0 | 0.0 | 0.00 | 0.00 | 0.00 | 33 | 1004.4 |
| 20260506103714 | 79 | 0 | 0.0 | 0.0 | 0.00 | 0.00 | 0.00 | 33 | 1004.6 |
| 20260506103004 | 79 | 0 | 0.0 | 0.0 | 0.00 | 0.00 | 0.00 | 33 | 1004.8 |
| 20260506102504 | 79 | 0 | 0.0 | 0.0 | 0.00 | 0.00 | 0.00 | 33 | 1004.5 |
| 20260506102004 | 80 | 0 | 0.0 | 0.0 | 0.00 | 0.00 | 0.00 | 33 | 1004.7 |
| 20260506101503 | 80 | 0 | 0.0 | 0.0 | 0.00 | 0.00 | 0.00 | 32 | 1004.6 |
| 20260506101214 | 80 | 0 | 0.0 | 0.0 | 0.00 | 0.00 | 0.00 | 32 | 1004.7 |
| 20260506100503 | 80 | 0 | 0.0 | 0.0 | 0.00 | 0.00 | 0.00 | 33 | 1004.6 |
| 20260506100004 | 80 | 0 | 0.0 | 0.0 | 0.00 | 0.00 | 0.00 | 33 | 1004.7 |
| 20260506095504 | 80 | 0 | 0.0 | 0.0 | 0.00 | 0.00 | 0.00 | 35 | 1004.7 |
| 20260506095004 | 79 | 0 | 0.0 | 0.0 | 0.00 | 0.00 | 0.00 | 35 | 1004.6 |
| 20260506094504 | 79 | 0 | 0.0 | 0.0 | 0.00 | 0.00 | 0.00 | 38 | 1004.8 |
| 20260506094004 | 78 | 0 | 0.0 | 0.0 | 0.00 | 0.00 | 0.00 | 40 | 1004.8 |
| 20260506093715 | 77 | 0 | 0.0 | 0.0 | 0.00 | 0.00 | 0.00 | 40 | 1004.9 |
| 20260506093004 | 76 | 0 | 0.0 | 0.0 | 0.00 | 0.00 | 0.00 | 40 | 1004.9 |